Terug naar catalogus

STARLINK-35877

ActiefCommunicatieVLEO
NORAD 67049·PAYLOAD·🇺🇸 United States

Gelanceerd Dec 11, 2025 vanaf Cape Canaveral Space Force Station

Loading…

Volgende Passages (komende 24 uur)

TLE

VersSource: CelesTrak SupGP

Epoch: Sep 14, 2026, 20:58 UTC

1 67049C 25294V   26257.87409722  .00050000  00000+0  18111-2 0  2574
2 67049  43.0018  49.9232 0001649 276.7403 293.9582 15.27551816    12

Volg STARLINK-35877 in realtime met AllMySat

Download on the App Store